User: anonymous   Login
Location: Unspecified
(0.0000°N, 0.0000°E)
Time: 01:03:27
(UTC+01:00)
Language:

Cosmos 1980 Rocket - Orbit

View from above orbital plane
View from above orbital plane
View from above satellite
View from above satellite

Ground track
Ground track

The orbit data is extracted from the following two-line orbital elements,

1 19650U 88102B   17082.94059810 -.00000282 +00000-0 -11932-3 0  9997
2 19650 071.0001 194.3456 0016109 306.8884 053.0762 14.15753235463651
Epoch (UTC): 23 March 2017 22:34:27
Eccentricity: 0.0016109
inclination: 71.0001°
perigee height: 828 km
apogee height: 851 km
right ascension of ascending node: 194.3456°
argument of perigee: 306.8884°
revolutions per day: 14.15753235
mean anomaly at epoch: 53.0762°
orbit number at epoch: 46365

The dashed part of the orbit path shows where the satellite is in the earth's shadow,  

DLR